Penn Yan, NY

2:28 PM EDT on October 23, 2019 (GMT -0400)
Penn Yan

Weather History for KPEO - September, 2019

Change the Weather History Date:

Monday, September 16, 2019

  Actual Average (KITH) Record (KITH)
Temperature  
Mean Temperature 60 °F -  
Max Temperature 71 °F 70 °F 97 °F (1939)
Min Temperature 48 °F 48 °F 27 °F (1964)
Degree Days  
Heating Degree Days 4    
Growing Degree Days 10 (Base 50)    
Moisture  
Dew Point 58 °F    
Average Humidity 90    
Maximum Humidity 100    
Minimum Humidity 51    
Precipitation  
Precipitation 0.07 in - - ()
Sea Level Pressure  
Sea Level Pressure 30.12 in    
Wind  
Wind Speed 1 mph (WNW)    
Max Wind Speed 6 mph    
Max Gust Speed -    
Visibility 7 miles    
Events Fog , Rain    
Averages and records for this station are not official NWS values.
T = Trace of Precipitation, MM = Missing Value Source: NWS Daily Summary

Daily Weather History Graph

Daily Weather History Graph

Search for Another Location

Airport or City:

Astronomy

Sep. 16, 2019 Rise Set
Actual Time 6:48 AM EDT 7:16 PM EDT
Civil Twilight 6:20 AM EDT 7:44 PM EDT
Nautical Twilight 5:47 AM EDT 8:18 PM EDT
Astronomical Twilight 5:12 AM EDT 8:52 PM EDT
Moon 8:47 PM EDT (9/16) 8:55 AM EDT (9/16)
Length of Visible Light 13h 24m
Length of Day
12h 27m
Waning Gibbous, 94% of the Moon is Illuminated
Sep 16
Waning Gibbous
Sep 21
Last Quarter
Sep 28
New
Oct 5
First Quarter
Oct 13
Full

Hourly Weather History & Observations

Time (EDT) Temp. Dew Point Humidity Pressure Visibility Wind Dir Wind Speed Gust Speed Precip Events Conditions
12:16 AM 61.0 °F 61.0 °F 100% 30.12 in 0.5 mi Calm Calm - N/A Fog Fog
12:53 AM 61.0 °F 61.0 °F 100% 30.11 in 0.5 mi Calm Calm - 0.00 in Fog , Rain Light Rain
1:09 AM 61.0 °F 61.0 °F 100% 30.13 in 1.2 mi Calm Calm - 0.00 in   Overcast
1:43 AM 61.0 °F 61.0 °F 100% 30.12 in 2.5 mi SSW 3.5 mph - 0.01 in Rain Light Rain
1:53 AM 62.1 °F 62.1 °F 100% 30.11 in 2.5 mi SW 3.5 mph - 0.02 in Rain Rain
2:07 AM 61.0 °F 61.0 °F 100% 30.12 in 2.0 mi Calm Calm - 0.01 in Rain Light Rain
2:18 AM 61.0 °F 61.0 °F 100% 30.12 in 3.0 mi Calm Calm - 0.01 in Rain Light Rain
2:38 AM 62.1 °F 62.1 °F 100% 30.11 in 2.5 mi Calm Calm - 0.02 in Rain Light Rain
2:53 AM 61.0 °F 61.0 °F 100% 30.10 in 3.0 mi Variable 3.5 mph - 0.02 in Rain Light Rain
3:05 AM 61.0 °F 61.0 °F 100% 30.11 in 2.5 mi Variable 3.5 mph - 0.00 in Rain Light Rain
3:32 AM 61.0 °F 61.0 °F 100% 30.11 in 4.0 mi Calm Calm - 0.02 in Rain Light Rain
3:53 AM 61.0 °F 61.0 °F 100% 30.10 in 4.0 mi NW 4.6 mph - 0.02 in Rain Light Rain
4:53 AM 61.0 °F 60.1 °F 97% 30.10 in 6.0 mi Variable 3.5 mph - 0.01 in   Overcast
5:01 AM 60.1 °F 60.1 °F 100% 30.11 in 6.0 mi Calm Calm - N/A   Overcast
5:15 AM 60.1 °F 60.1 °F 100% 30.11 in 8.0 mi Calm Calm - N/A   Overcast
5:38 AM 60.1 °F 60.1 °F 100% 30.11 in 7.0 mi Calm Calm - N/A   Overcast
5:53 AM 60.1 °F 60.1 °F 100% 30.11 in 7.0 mi Calm Calm - N/A   Overcast
6:53 AM 60.1 °F 59.0 °F 96% 30.12 in 8.0 mi Calm Calm - N/A   Overcast
7:08 AM 60.1 °F 59.0 °F 96% 30.12 in 7.0 mi Calm Calm - N/A   Overcast
7:53 AM 60.1 °F 59.0 °F 96% 30.13 in 7.0 mi North 3.5 mph - N/A   Overcast
8:53 AM 60.1 °F 59.0 °F 96% 30.14 in 9.0 mi Calm Calm - N/A   Overcast
9:06 AM 60.1 °F 59.0 °F 96% 30.14 in 8.0 mi Calm Calm - N/A   Overcast
9:16 AM 60.1 °F 59.0 °F 96% 30.13 in 6.0 mi Calm Calm - 0.00 in Rain Light Rain
9:27 AM 60.1 °F 59.0 °F 96% 30.14 in 7.0 mi Variable 3.5 mph - 0.00 in   Overcast
9:38 AM 60.1 °F 59.0 °F 96% 30.14 in 7.0 mi Calm Calm - 0.00 in   Overcast
9:50 AM 60.8 °F 59.0 °F 94% 30.14 in 8.0 mi North 3.5 mph - 0.00 in   Overcast
9:53 AM 61.0 °F 59.0 °F 93% 30.14 in 9.0 mi Calm Calm - 0.00 in   Overcast
10:53 AM 62.1 °F 59.0 °F 90% 30.14 in 10.0 mi Calm Calm - N/A   Overcast
11:05 AM 63.0 °F 59.0 °F 87% 30.14 in 10.0 mi Variable 4.6 mph - N/A   Overcast
11:53 AM 63.0 °F 57.9 °F 84% 30.13 in 10.0 mi Variable 4.6 mph - N/A   Overcast
12:53 PM 64.9 °F 57.9 °F 78% 30.12 in 10.0 mi East 3.5 mph - N/A   Overcast
1:06 PM 66.0 °F 57.9 °F 75% 30.13 in 10.0 mi Calm Calm - N/A   Overcast
1:53 PM 66.0 °F 57.0 °F 73% 30.11 in 10.0 mi Calm Calm - N/A   Mostly Cloudy
2:53 PM 68.0 °F 57.9 °F 70% 30.10 in 10.0 mi Variable 3.5 mph - N/A   Mostly Cloudy
3:05 PM 70.0 °F 57.9 °F 65% 30.11 in 10.0 mi Variable 3.5 mph - N/A   Scattered Clouds
3:53 PM 70.0 °F 55.9 °F 61% 30.09 in 10.0 mi Variable 3.5 mph - N/A   Clear
4:53 PM 71.1 °F 52.0 °F 51% 30.09 in 10.0 mi North 5.8 mph - N/A   Clear
5:53 PM 70.0 °F 52.0 °F 53% 30.09 in 10.0 mi Variable 3.5 mph - N/A   Partly Cloudy
6:53 PM 66.0 °F 54.0 °F 65% 30.10 in 10.0 mi Variable 3.5 mph - N/A   Mostly Cloudy
7:53 PM 62.1 °F 55.0 °F 78% 30.11 in 10.0 mi Calm Calm - N/A   Mostly Cloudy
8:53 PM 57.9 °F 53.1 °F 84% 30.13 in 10.0 mi North - - N/A   Clear
9:53 PM 55.0 °F 52.0 °F 89% 30.14 in 10.0 mi Calm Calm - N/A   Clear
10:53 PM 50.0 °F 50.0 °F 100% 30.16 in 10.0 mi South 3.5 mph - N/A   Clear
11:53 PM 48.9 °F 48.0 °F 97% 30.17 in 10.0 mi South 3.5 mph - N/A   Clear